This is the latest recevied weather packets stored in our database for station/object KB4MOX. If no packets are shown the sender has not sent any weather packets the latest 1 day(s).
| Time | Temp. | Humidity | Pressure | Rain* | Wind** | Luminosity | Snow |
|---|---|---|---|---|---|---|---|
| 1777983306 | 15° C | 88% | 1016.6 hPa | 0 mm | 0 m/s | 38 W/m² | - |
| 1777983002 | 14.44° C | 90% | 1016.6 hPa | 0 mm | 0 m/s | 31 W/m² | - |
| 1777982699 | 13.89° C | 91% | 1016.4 hPa | 0 mm | 0 m/s | 29 W/m² | - |
| 1777982398 | 13.89° C | 93% | 1016.7 hPa | 0 mm | 0 m/s | 27 W/m² | - |
| 1777982094 | 13.33° C | 94% | 1016.6 hPa | 0 mm | 0 m/s | 26 W/m² | - |
| 1777981793 | 12.78° C | 95% | 1016.5 hPa | 0 mm | 0 m/s | 25 W/m² | - |
| 1777981488 | 12.22° C | 96% | 1016.7 hPa | 0 mm | 0 m/s | 24 W/m² | - |
| 1777981185 | 12.22° C | 95% | 1016.4 hPa | 0 mm | 0 m/s | 23 W/m² | - |
| 1777980881 | 11.67° C | 95% | 1016.4 hPa | 0 mm | 0 m/s | 21 W/m² | - |
| 1777980577 | 11.67° C | 95% | 1016.4 hPa | 0 mm | 0 m/s | 19 W/m² | - |
| 1777980275 | 11.67° C | 95% | 1016.4 hPa | 0 mm | 0 m/s | 17 W/m² | - |
| 1777979971 | 11.67° C | 95% | 1016.2 hPa | 0 mm | 0 m/s | 16 W/m² | - |
| 1777979666 | 11.11° C | 95% | 1016.3 hPa | 0 mm | 0 m/s | 14 W/m² | - |
| 1777979363 | 11.11° C | 95% | 1015.9 hPa | 0 mm | 0 m/s | 12 W/m² | - |
| 1777979060 | 11.11° C | 94% | 1016.2 hPa | 0 mm | 0 m/s | 10 W/m² | - |
| 1777978756 | 11.11° C | 94% | 1016.1 hPa | 0 mm | 0 m/s | 8 W/m² | - |
| 1777978453 | 11.11° C | 94% | 1016 hPa | 0 mm | 0 m/s | 6 W/m² | - |
| 1777978149 | 11.11° C | 94% | 1016 hPa | 0 mm | 0 m/s | 4 W/m² | - |
| 1777977846 | 11.11° C | 94% | 1016 hPa | 0 mm | 0 m/s | 2 W/m² | - |
| 1777977542 | 11.11° C | 93% | 1016.1 hPa | 0 mm | 0 m/s | 1 W/m² | - |
| 1777977240 | 11.67° C | 93% | 1015.9 hPa | 0 mm | 0 m/s | 1 W/m² | - |
| 1777976937 | 11.67° C | 93% | 1015.8 hPa | 0 mm | 0 m/s | 0 W/m² | - |
| 1777976634 | 11.67° C | 94% | 1015.8 hPa | 0 mm | 0 m/s | 0 W/m² | - |
| 1777976330 | 11.67° C | 94% | 1015.7 hPa | 0 mm | 0 m/s | 0 W/m² | - |
| 1777976025 | 11.67° C | 93% | 1015.7 hPa | 0 mm | 0 m/s | 0 W/m² | - |
* Rain latest hour (hover to see other rain measurements)
** Current wind speed in m/s (hover to see current wind gust speed)